AEE976 LGAV-LYBE

Flight info

Callsign AEE976
Flight time 1h 19m
Altitude 36000
Route KRO T162 NEVRA UT162 KOROS UN133 PEREN UL863 EVIVI L863 OKANA DCT GAZON
Aircraft A320/M-SDE3FGHIRWY/LB1

Departure

Time 2026-05-04 21:42
Airport Athens Eleftherios Venizelos International Airport (LGAV)

Arrival

Time 2026-05-04 23:01
Airport Belgrade Nikola Tesla Airport (LYBE)
Time Latitude Longitude Altitude Speed Heading
2026-05-04 21:33 37.93202 23.94279 322 ft 0 kts 217°
2026-05-04 21:34 37.93203 23.94280 322 ft 1 kts 217°
2026-05-04 21:34 37.93215 23.94291 322 ft 3 kts 217°
2026-05-04 21:34 37.93230 23.94306 322 ft 3 kts 217°
2026-05-04 21:35 37.93247 23.94321 322 ft 3 kts 217°
2026-05-04 21:35 37.93257 23.94329 322 ft 1 kts 139°
2026-05-04 21:35 37.93259 23.94327 322 ft 0 kts 131°
2026-05-04 21:37 37.93258 23.94327 322 ft 0 kts 131°
2026-05-04 21:38 37.93255 23.94332 322 ft 2 kts 131°
2026-05-04 21:38 37.93245 23.94349 322 ft 3 kts 124°
2026-05-04 21:38 37.93228 23.94380 322 ft 5 kts 125°
2026-05-04 21:38 37.93203 23.94425 322 ft 7 kts 125°
2026-05-04 21:39 37.93166 23.94484 322 ft 10 kts 127°
2026-05-04 21:39 37.93122 23.94559 322 ft 12 kts 126°
2026-05-04 21:39 37.93068 23.94651 322 ft 14 kts 130°
2026-05-04 21:39 37.92982 23.94648 322 ft 15 kts 222°
2026-05-04 21:40 37.92896 23.94565 322 ft 17 kts 217°
2026-05-04 21:40 37.92798 23.94471 322 ft 19 kts 217°
2026-05-04 21:40 37.92688 23.94365 322 ft 21 kts 217°
2026-05-04 21:40 37.92573 23.94271 322 ft 14 kts 159°
2026-05-04 21:41 37.92507 23.94374 322 ft 16 kts 126°
2026-05-04 21:41 37.92518 23.94484 322 ft 13 kts 37°
2026-05-04 21:41 37.92604 23.94565 322 ft 25 kts 36°
2026-05-04 21:41 37.92946 23.94890 322 ft 97 kts 37°
2026-05-04 21:42 37.93662 23.95568 324 ft 156 kts 36°
2026-05-04 21:42 37.94593 23.96458 689 ft 170 kts 36°
2026-05-04 21:42 37.95522 23.97359 1458 ft 166 kts 36°
2026-05-04 21:42 37.96432 23.98233 2123 ft 166 kts 37°
2026-05-04 21:43 37.97411 23.99153 2415 ft 184 kts 35°
2026-05-04 21:43 37.98470 24.00129 2764 ft 198 kts 36°
2026-05-04 21:43 37.99619 24.01200 3157 ft 212 kts 36°
2026-05-04 21:43 38.00852 24.02352 3559 ft 229 kts 35°
2026-05-04 21:44 38.02185 24.03596 4029 ft 246 kts 35°
2026-05-04 21:44 38.03599 24.04918 4592 ft 259 kts 35°
2026-05-04 21:44 38.05060 24.06285 5374 ft 261 kts 34°
2026-05-04 21:44 38.06522 24.07648 6241 ft 261 kts 33°
2026-05-04 21:45 38.07987 24.09018 7047 ft 263 kts 33°
2026-05-04 21:45 38.09464 24.10407 7809 ft 266 kts 33°
2026-05-04 21:45 38.10937 24.11789 8536 ft 268 kts 33°
2026-05-04 21:45 38.12450 24.13206 9255 ft 272 kts 33°
2026-05-04 21:46 38.13976 24.14637 9965 ft 274 kts 33°
2026-05-04 21:46 38.15521 24.16089 10625 ft 279 kts 34°
2026-05-04 21:46 38.17120 24.17590 10999 ft 294 kts 34°
2026-05-04 21:46 38.18817 24.19180 11208 ft 312 kts 34°
2026-05-04 21:47 38.20612 24.20865 11460 ft 328 kts 34°
2026-05-04 21:47 38.22490 24.22630 11712 ft 343 kts 34°
2026-05-04 21:47 38.24421 24.24448 11928 ft 357 kts 35°
2026-05-04 21:47 38.26452 24.26363 12199 ft 368 kts 35°
2026-05-04 21:48 38.28518 24.28315 12718 ft 371 kts 35°
2026-05-04 21:48 38.30595 24.30278 13273 ft 373 kts 35°
2026-05-04 21:48 38.32686 24.32255 13779 ft 376 kts 35°
2026-05-04 21:48 38.34797 24.34249 14248 ft 380 kts 35°
2026-05-04 21:49 38.36927 24.36262 14719 ft 383 kts 35°
2026-05-04 21:49 38.39069 24.38290 15190 ft 385 kts 35°
2026-05-04 21:49 38.41204 24.40309 15638 ft 388 kts 35°
2026-05-04 21:49 38.43382 24.42374 16086 ft 391 kts 35°
2026-05-04 21:50 38.45572 24.44453 16530 ft 394 kts 35°
2026-05-04 21:50 38.47780 24.46549 16967 ft 397 kts 35°
2026-05-04 21:50 38.49997 24.48656 17401 ft 399 kts 35°
2026-05-04 21:50 38.52230 24.50780 17818 ft 402 kts 35°
2026-05-04 21:51 38.54477 24.52918 18238 ft 404 kts 35°
2026-05-04 21:51 38.56739 24.55070 18659 ft 406 kts 35°
2026-05-04 21:51 38.58976 24.57201 19054 ft 408 kts 35°
2026-05-04 21:51 38.61258 24.59378 19447 ft 411 kts 35°
2026-05-04 21:52 38.63551 24.61571 19836 ft 413 kts 36°
2026-05-04 21:52 38.65857 24.63776 20221 ft 415 kts 36°
2026-05-04 21:52 38.68174 24.65992 20591 ft 417 kts 36°
2026-05-04 21:52 38.70501 24.68216 20948 ft 419 kts 36°
2026-05-04 21:53 38.72841 24.70458 21322 ft 421 kts 36°
2026-05-04 21:53 38.75193 24.72712 21673 ft 423 kts 36°
2026-05-04 21:53 38.77522 24.74949 22018 ft 425 kts 36°
2026-05-04 21:53 38.79889 24.77222 22366 ft 427 kts 36°
2026-05-04 21:54 38.82273 24.79508 22671 ft 429 kts 35°
2026-05-04 21:54 38.84796 24.81550 22984 ft 430 kts 26°
2026-05-04 21:54 38.87561 24.83007 23309 ft 430 kts 18°
2026-05-04 21:54 38.90426 24.84137 23630 ft 432 kts 16°
2026-05-04 21:55 38.93325 24.85191 23901 ft 434 kts 15°
2026-05-04 21:55 38.96244 24.86251 24185 ft 436 kts 16°
2026-05-04 21:55 38.99162 24.87352 24500 ft 438 kts 17°
2026-05-04 21:55 39.02041 24.88479 24765 ft 440 kts 17°
2026-05-04 21:56 39.04977 24.89604 25015 ft 442 kts 14°
2026-05-04 21:56 39.08019 24.90242 25278 ft 444 kts
2026-05-04 21:56 39.11111 24.90078 25537 ft 447 kts 353°
2026-05-04 21:56 39.14130 24.89056 25765 ft 452 kts 340°
2026-05-04 21:57 39.17002 24.87363 26040 ft 454 kts 336°
2026-05-04 21:57 39.19832 24.85536 26273 ft 457 kts 335°
2026-05-04 21:57 39.22677 24.83686 26474 ft 459 kts 335°
2026-05-04 21:57 39.25548 24.81869 26695 ft 460 kts 336°
2026-05-04 21:58 39.28403 24.80115 26961 ft 461 kts 336°
2026-05-04 21:58 39.31299 24.78353 27275 ft 460 kts 336°
2026-05-04 21:58 39.34184 24.76577 27560 ft 460 kts 336°
2026-05-04 21:58 39.37063 24.74777 27850 ft 459 kts 336°
2026-05-04 21:59 39.39939 24.72965 28117 ft 460 kts 336°
2026-05-04 21:59 39.42818 24.71157 28398 ft 460 kts 336°
2026-05-04 21:59 39.45696 24.69359 28684 ft 460 kts 336°
2026-05-04 21:59 39.48581 24.67560 28935 ft 460 kts 336°
2026-05-04 22:00 39.51463 24.65758 29213 ft 460 kts 336°
2026-05-04 22:00 39.54302 24.63977 29483 ft 460 kts 336°
2026-05-04 22:00 39.57184 24.62169 29750 ft 460 kts 336°
2026-05-04 22:00 39.60063 24.60363 30011 ft 460 kts 336°
2026-05-04 22:01 39.62944 24.58554 30283 ft 460 kts 336°
2026-05-04 22:01 39.65817 24.56744 30623 ft 458 kts 336°
2026-05-04 22:01 39.68669 24.54943 30985 ft 455 kts 336°
2026-05-04 22:01 39.71505 24.53153 31333 ft 453 kts 336°
2026-05-04 22:02 39.74337 24.51370 31657 ft 451 kts 336°
2026-05-04 22:02 39.77154 24.49598 31965 ft 449 kts 336°
2026-05-04 22:02 39.79918 24.47854 32266 ft 447 kts 336°
2026-05-04 22:02 39.82712 24.46087 32564 ft 445 kts 335°
2026-05-04 22:03 39.85491 24.44325 32874 ft 443 kts 335°
2026-05-04 22:03 39.88257 24.42570 33164 ft 441 kts 335°
2026-05-04 22:03 39.91008 24.40826 33447 ft 440 kts 335°
2026-05-04 22:03 39.93757 24.39085 33707 ft 438 kts 335°
2026-05-04 22:04 39.96495 24.37346 33966 ft 437 kts 335°
2026-05-04 22:04 39.99218 24.35611 34220 ft 435 kts 335°
2026-05-04 22:04 40.01937 24.33878 34409 ft 435 kts 335°
2026-05-04 22:04 40.04659 24.32147 34583 ft 435 kts 335°
2026-05-04 22:05 40.07340 24.30440 34766 ft 435 kts 335°
2026-05-04 22:05 40.10057 24.28706 34944 ft 435 kts 335°
2026-05-04 22:05 40.12770 24.26970 35148 ft 434 kts 335°
2026-05-04 22:05 40.15478 24.25236 35315 ft 433 kts 335°
2026-05-04 22:06 40.18186 24.23504 35460 ft 433 kts 335°
2026-05-04 22:06 40.20893 24.21772 35627 ft 433 kts 335°
2026-05-04 22:06 40.23594 24.20041 35779 ft 432 kts 335°
2026-05-04 22:06 40.26295 24.18307 35908 ft 432 kts 335°
2026-05-04 22:07 40.28954 24.16601 36031 ft 432 kts 335°
2026-05-04 22:07 40.34362 24.13124 36090 ft 433 kts 334°
2026-05-04 22:08 40.39775 24.09637 36094 ft 434 kts 334°
2026-05-04 22:08 40.45191 24.06143 36095 ft 434 kts 334°
2026-05-04 22:09 40.50573 24.02664 36096 ft 434 kts 334°
2026-05-04 22:09 40.55989 23.99151 36105 ft 434 kts 334°
2026-05-04 22:10 40.61393 23.95652 36143 ft 433 kts 335°
2026-05-04 22:10 40.66795 23.92273 36138 ft 433 kts 335°
2026-05-04 22:11 40.72242 23.88890 36142 ft 433 kts 335°
2026-05-04 22:11 40.77667 23.85457 36140 ft 433 kts 335°
2026-05-04 22:12 40.83100 23.82023 36140 ft 433 kts 335°
2026-05-04 22:12 40.88531 23.78591 36143 ft 433 kts 335°
2026-05-04 22:13 40.93923 23.75176 36143 ft 433 kts 335°
2026-05-04 22:13 40.99353 23.71735 36141 ft 433 kts 335°
2026-05-04 22:14 41.04780 23.68284 36129 ft 433 kts 335°
2026-05-04 22:14 41.10215 23.64818 36128 ft 433 kts 335°
2026-05-04 22:15 41.15613 23.61380 36142 ft 433 kts 335°
2026-05-04 22:15 41.21046 23.57906 36146 ft 433 kts 335°
2026-05-04 22:16 41.26483 23.54429 36136 ft 434 kts 335°
2026-05-04 22:16 41.31916 23.50930 36133 ft 434 kts 335°
2026-05-04 22:17 41.37322 23.47450 36148 ft 434 kts 335°
2026-05-04 22:17 41.42763 23.43942 36149 ft 434 kts 335°
2026-05-04 22:18 41.48188 23.40392 36152 ft 434 kts 334°
2026-05-04 22:18 41.53622 23.36851 36159 ft 434 kts 334°
2026-05-04 22:19 41.59015 23.33323 36164 ft 434 kts 334°
2026-05-04 22:19 41.64441 23.29770 36168 ft 434 kts 334°
2026-05-04 22:20 41.69873 23.26208 36168 ft 435 kts 334°
2026-05-04 22:20 41.75303 23.22639 36168 ft 435 kts 334°
2026-05-04 22:21 41.80728 23.19071 36172 ft 435 kts 334°
2026-05-04 22:21 41.86117 23.15506 36175 ft 434 kts 334°
2026-05-04 22:22 41.91540 23.11925 36174 ft 434 kts 334°
2026-05-04 22:22 41.96955 23.08338 36174 ft 434 kts 334°
2026-05-04 22:23 42.02372 23.04739 36179 ft 434 kts 334°
2026-05-04 22:23 42.07755 23.01165 36159 ft 435 kts 334°
2026-05-04 22:24 42.13179 22.97553 36156 ft 435 kts 334°
2026-05-04 22:24 42.18590 22.93941 36183 ft 434 kts 334°
2026-05-04 22:25 42.24001 22.90328 36184 ft 434 kts 334°
2026-05-04 22:25 42.29406 22.86702 36184 ft 434 kts 334°
2026-05-04 22:26 42.34771 22.83096 36187 ft 433 kts 334°
2026-05-04 22:26 42.40174 22.79469 36186 ft 434 kts 334°
2026-05-04 22:27 42.45572 22.75828 36184 ft 434 kts 334°
2026-05-04 22:27 42.50975 22.72180 36185 ft 434 kts 334°
2026-05-04 22:28 42.56340 22.68553 36182 ft 434 kts 334°
2026-05-04 22:28 42.61739 22.64897 36185 ft 434 kts 334°
2026-05-04 22:29 42.67139 22.61231 36181 ft 434 kts 334°
2026-05-04 22:29 42.72531 22.57558 36181 ft 433 kts 334°
2026-05-04 22:30 42.77880 22.53912 36183 ft 433 kts 334°
2026-05-04 22:30 42.83247 22.50217 36181 ft 432 kts 332°
2026-05-04 22:31 42.88082 22.45340 36146 ft 434 kts 321°
2026-05-04 22:31 42.92595 22.39866 36102 ft 435 kts 320°
2026-05-04 22:32 42.97131 22.34413 36093 ft 434 kts 321°
2026-05-04 22:32 43.01669 22.29063 36095 ft 434 kts 321°
2026-05-04 22:33 43.06226 22.23622 36097 ft 436 kts 320°
2026-05-04 22:33 43.10786 22.18141 36124 ft 437 kts 320°
2026-05-04 22:34 43.15368 22.12670 36180 ft 437 kts 320°
2026-05-04 22:34 43.19915 22.07205 36186 ft 438 kts 320°
2026-05-04 22:35 43.24494 22.01687 36186 ft 438 kts 320°
2026-05-04 22:35 43.29076 21.96163 36188 ft 437 kts 320°
2026-05-04 22:36 43.33630 21.90650 36187 ft 435 kts 320°
2026-05-04 22:36 43.38134 21.85200 36126 ft 432 kts 320°
2026-05-04 22:36 43.40382 21.82475 35793 ft 431 kts 320°
2026-05-04 22:37 43.42635 21.79742 35535 ft 433 kts 320°
2026-05-04 22:37 43.44891 21.77003 35287 ft 433 kts 320°
2026-05-04 22:37 43.47144 21.74257 35039 ft 433 kts 320°
2026-05-04 22:37 43.49402 21.71505 34790 ft 434 kts 320°
2026-05-04 22:38 43.51663 21.68745 34542 ft 434 kts 320°
2026-05-04 22:38 43.53920 21.65988 34294 ft 434 kts 320°
2026-05-04 22:38 43.56176 21.63228 34046 ft 434 kts 321°
2026-05-04 22:38 43.58408 21.60502 33802 ft 435 kts 321°
2026-05-04 22:39 43.60673 21.57733 33553 ft 436 kts 320°
2026-05-04 22:39 43.62941 21.54956 33306 ft 437 kts 320°
2026-05-04 22:39 43.65209 21.52170 33058 ft 437 kts 320°
2026-05-04 22:39 43.67487 21.49371 32809 ft 438 kts 320°
2026-05-04 22:40 43.69763 21.46568 32561 ft 439 kts 320°
2026-05-04 22:40 43.72041 21.43761 32313 ft 439 kts 320°
2026-05-04 22:40 43.74325 21.40946 32065 ft 440 kts 320°
2026-05-04 22:40 43.76585 21.38162 31820 ft 441 kts 320°
2026-05-04 22:41 43.78871 21.35341 31572 ft 441 kts 320°
2026-05-04 22:41 43.81169 21.32501 31324 ft 442 kts 320°
2026-05-04 22:41 43.83457 21.29668 31076 ft 442 kts 320°
2026-05-04 22:41 43.85756 21.26821 30827 ft 443 kts 320°
2026-05-04 22:42 43.88053 21.23974 30580 ft 444 kts 320°
2026-05-04 22:42 43.90354 21.21114 30331 ft 444 kts 320°
2026-05-04 22:42 43.92653 21.18251 30083 ft 445 kts 320°
2026-05-04 22:42 43.94955 21.15385 29834 ft 445 kts 320°
2026-05-04 22:43 43.97263 21.12515 29586 ft 446 kts 320°
2026-05-04 22:43 43.99539 21.09680 29341 ft 446 kts 320°
2026-05-04 22:43 44.01851 21.06796 29092 ft 446 kts 320°
2026-05-04 22:43 44.04161 21.03911 28727 ft 447 kts 320°
2026-05-04 22:44 44.06469 21.01018 28028 ft 447 kts 320°
2026-05-04 22:44 44.08784 20.98115 27160 ft 449 kts 320°
2026-05-04 22:44 44.11111 20.95195 26290 ft 451 kts 319°
2026-05-04 22:44 44.13443 20.92271 25427 ft 452 kts 319°
2026-05-04 22:45 44.15873 20.89487 24521 ft 452 kts 326°
2026-05-04 22:45 44.21439 20.85577 23022 ft 452 kts 338°
2026-05-04 22:45 44.24343 20.83927 22215 ft 449 kts 339°
2026-05-04 22:46 44.27229 20.82306 21413 ft 446 kts 339°
2026-05-04 22:46 44.30090 20.80668 20634 ft 442 kts 339°
2026-05-04 22:46 44.32917 20.79010 19852 ft 439 kts 339°
2026-05-04 22:46 44.35708 20.77350 19062 ft 434 kts 339°
2026-05-04 22:47 44.38471 20.75712 18305 ft 428 kts 339°
2026-05-04 22:47 44.41201 20.74111 17559 ft 423 kts 339°
2026-05-04 22:47 44.43864 20.72556 16799 ft 419 kts 339°
2026-05-04 22:47 44.46540 20.70990 16060 ft 415 kts 339°
2026-05-04 22:48 44.49188 20.69431 15326 ft 411 kts 339°
2026-05-04 22:48 44.51761 20.67710 14573 ft 410 kts 332°
2026-05-04 22:48 44.54075 20.65388 13823 ft 409 kts 320°
2026-05-04 22:48 44.55988 20.62450 13103 ft 408 kts 308°
2026-05-04 22:49 44.57534 20.59123 12392 ft 406 kts 303°
2026-05-04 22:49 44.58997 20.55748 11640 ft 404 kts 302°
2026-05-04 22:49 44.60447 20.52391 10968 ft 399 kts 302°
2026-05-04 22:49 44.61868 20.49179 10623 ft 385 kts 303°
2026-05-04 22:50 44.63265 20.46077 10486 ft 366 kts 303°
2026-05-04 22:50 44.64600 20.43124 10359 ft 350 kts 303°
2026-05-04 22:50 44.65869 20.40293 10232 ft 335 kts 303°
2026-05-04 22:50 44.67081 20.37572 10106 ft 322 kts 303°
2026-05-04 22:51 44.68244 20.34955 9977 ft 310 kts 302°
2026-05-04 22:51 44.69366 20.32433 9857 ft 299 kts 302°
2026-05-04 22:51 44.70455 20.29985 9579 ft 294 kts 302°
2026-05-04 22:51 44.71542 20.27538 9131 ft 296 kts 302°
2026-05-04 22:52 44.72618 20.25117 8739 ft 295 kts 302°
2026-05-04 22:52 44.73700 20.22680 8386 ft 293 kts 302°
2026-05-04 22:52 44.74775 20.20252 8026 ft 292 kts 301°
2026-05-04 22:52 44.75846 20.17828 7657 ft 290 kts 301°
2026-05-04 22:53 44.76909 20.15427 7293 ft 289 kts 302°
2026-05-04 22:53 44.77968 20.13037 6940 ft 287 kts 301°
2026-05-04 22:53 44.79016 20.10656 6586 ft 285 kts 301°
2026-05-04 22:53 44.80064 20.08280 6218 ft 284 kts 301°
2026-05-04 22:54 44.81090 20.05953 5868 ft 283 kts 301°
2026-05-04 22:54 44.82124 20.03606 5521 ft 281 kts 301°
2026-05-04 22:54 44.83146 20.01268 5182 ft 279 kts 301°
2026-05-04 22:54 44.84163 19.98967 5002 ft 271 kts 301°
2026-05-04 22:55 44.85299 19.96946 4976 ft 258 kts 321°
2026-05-04 22:55 44.86866 19.95923 4981 ft 251 kts 351°
2026-05-04 22:55 44.88600 19.96126 4992 ft 252 kts 19°
2026-05-04 22:55 44.90142 19.97221 4950 ft 246 kts 34°
2026-05-04 22:56 44.91503 19.98621 4715 ft 241 kts 46°
2026-05-04 22:56 44.92407 20.00560 4499 ft 233 kts 68°
2026-05-04 22:56 44.92775 20.02682 4398 ft 221 kts 86°
2026-05-04 22:56 44.92791 20.04820 4181 ft 217 kts 96°
2026-05-04 22:57 44.92354 20.06834 3882 ft 215 kts 119°
2026-05-04 22:57 44.91561 20.08608 3548 ft 214 kts 125°
2026-05-04 22:57 44.90715 20.10377 3055 ft 221 kts 124°
2026-05-04 22:57 44.89945 20.12281 2566 ft 226 kts 115°
2026-05-04 22:58 44.89243 20.14239 2327 ft 219 kts 120°
2026-05-04 22:58 44.88487 20.16014 2299 ft 206 kts 123°
2026-05-04 22:58 44.87734 20.17653 2293 ft 194 kts 123°
2026-05-04 22:58 44.87046 20.19197 2250 ft 179 kts 122°
2026-05-04 22:59 44.86420 20.20619 2137 ft 161 kts 123°
2026-05-04 22:59 44.85853 20.21893 1977 ft 146 kts 123°
2026-05-04 22:59 44.85330 20.23077 1678 ft 140 kts 122°
2026-05-04 22:59 44.84818 20.24235 1331 ft 138 kts 123°
2026-05-04 23:00 44.84303 20.25358 1023 ft 134 kts 123°
2026-05-04 23:00 44.83813 20.26472 801 ft 133 kts 122°
2026-05-04 23:00 44.83335 20.27576 651 ft 135 kts 123°
2026-05-04 23:00 44.82832 20.28690 475 ft 134 kts 123°
2026-05-04 23:01 44.82343 20.29794 351 ft 128 kts 123°
2026-05-04 23:01 44.81952 20.30676 350 ft 80 kts 122°
2026-05-04 23:01 44.81747 20.31132 349 ft 30 kts 129°
2026-05-04 23:01 44.81594 20.31225 349 ft 24 kts 184°
2026-05-04 23:02 44.81464 20.31112 349 ft 21 kts 260°
2026-05-04 23:02 44.81516 20.30939 349 ft 20 kts 301°
2026-05-04 23:02 44.81593 20.30765 349 ft 22 kts 304°
2026-05-04 23:02 44.81677 20.30578 349 ft 22 kts 302°
2026-05-04 23:03 44.81760 20.30390 349 ft 22 kts 302°
2026-05-04 23:03 44.81847 20.30194 349 ft 25 kts 302°
2026-05-04 23:03 44.81942 20.29978 349 ft 27 kts 302°
2026-05-04 23:03 44.82031 20.29781 349 ft 23 kts 302°
2026-05-04 23:04 44.82115 20.29591 349 ft 23 kts 302°
2026-05-04 23:04 44.82200 20.29397 349 ft 21 kts 302°
2026-05-04 23:04 44.82278 20.29219 349 ft 17 kts 301°
2026-05-04 23:04 44.82254 20.29122 349 ft 13 kts 195°
2026-05-04 23:05 44.82186 20.29071 349 ft 10 kts 212°
2026-05-04 23:05 44.82167 20.29054 349 ft 0 kts 212°